WO1J Weather Reports


time (UTC)temp
C
wind
direction
speed
KPH
gust
KPH
rain 1hr
cm
rain 24hr
cm
rain mn
cm
humidity
%
barometer
mb
20260504231509 18 266 0.0 4.8 0.00 0.00 0.00 43 1005.1
20260504230038 19 260 0.0 6.4 0.00 0.00 0.00 42 1005.0
20260504224508 19 269 1.6 11.3 0.00 0.00 0.00 42 1004.9
20260504223036 19 251 3.2 11.3 0.00 0.00 0.00 42 1004.8
20260504221503 19 254 3.2 20.9 0.00 0.00 0.00 43 1004.8
20260504220028 20 277 3.2 11.3 0.00 0.00 0.00 41 1004.7
20260504214555 20 281 1.6 11.3 0.00 0.00 0.00 40 1004.8
20260504213022 21 252 1.6 9.7 0.00 0.00 0.00 40 1004.8
20260504211550 21 263 3.2 20.9 0.00 0.00 0.00 39 1004.8
20260504210017 21 310 4.8 14.5 0.00 0.00 0.00 39 1004.7
20260504204553 20 253 4.8 12.9 0.00 0.00 0.00 41 1004.7
20260504203004 20 284 3.2 17.7 0.00 0.00 0.00 41 1004.7
20260504201518 20 284 6.4 24.1 0.00 0.00 0.00 42 1004.8
20260504200045 20 287 4.8 22.5 0.00 0.00 0.00 44 1004.9
20260504194509 19 317 8.0 25.7 0.00 0.00 0.00 42 1004.9
20260504193037 19 294 4.8 25.7 0.00 0.00 0.00 43 1005.0
20260504191510 20 295 6.4 17.7 0.00 0.00 0.00 43 1005.0
20260504190036 19 312 6.4 20.9 0.00 0.00 0.00 44 1005.1
20260504184559 17 310 4.8 16.1 0.00 0.00 0.00 48 1005.1
20260504183019 16 278 9.7 19.3 0.00 0.00 0.00 49 1005.5
20260504181553 16 311 6.4 20.9 0.00 0.00 0.00 49 1005.6
20260504180017 16 275 6.4 22.5 0.00 0.00 0.00 47 1005.5
20260504174548 16 269 8.0 22.5 0.00 0.00 0.00 47 1005.6
20260504173015 16 290 6.4 22.5 0.00 0.00 0.00 43 1005.6
20260504171545 17 275 8.0 19.3 0.00 0.00 0.00 42 1005.3
20260504081548 3 173 0.0 0.0 0.00 0.00 0.00 72 1008.1
20260504044557 2 248 0.0 4.8 0.00 0.00 0.00 76 1007.9
20260504043036 2 193 1.6 3.2 0.00 0.00 0.00 77 1007.8
20260504041540 2 187 0.0 1.6 0.00 0.00 0.00 76 1007.8
20260504040002 2 171 0.0 4.8 0.00 0.00 0.00 77 1007.8
20260504034526 2 144 1.6 3.2 0.00 0.00 0.00 77 1007.7
20260504033053 3 235 0.0 1.6 0.00 0.00 0.00 76 1007.6
20260504031512 3 235 0.0 3.2 0.00 0.00 0.00 75 1007.6
20260504030037 4 215 0.0 0.0 0.00 0.03 0.00 71 1007.5
20260504024506 4 215 0.0 0.0 0.00 0.03 0.00 71 1007.5
20260504023034 4 215 0.0 0.0 0.00 0.03 0.00 71 1007.6
20260504021600 5 215 0.0 3.2 0.00 0.03 0.00 71 1007.6
20260504020029 5 194 0.0 1.6 0.00 0.03 0.00 70 1007.5
20260504014610 5 194 0.0 1.6 0.00 0.03 0.00 70 1007.6
20260504013036 5 194 0.0 3.2 0.00 0.03 0.00 70 1007.5
20260504011554 6 258 0.0 3.2 0.00 0.03 0.00 68 1007.4
20260504010024 6 270 3.2 8.0 0.00 0.10 0.00 67 1007.1
20260504004620 6 304 4.8 16.1 0.00 0.10 0.00 64 1007.0
20260504003023 6 311 4.8 19.3 0.00 0.10 0.00 62 1006.7
20260504001615 7 314 4.8 17.7 0.00 0.10 0.00 61 1006.3
20260504000013 7 304 4.8 16.1 0.00 0.13 0.00 60 1006.1
20260503234545 7 261 8.0 22.5 0.00 0.13 0.00 58 1005.9
20260503233020 8 294 11.3 32.2 0.00 0.13 0.00 54 1005.7